Time,TemperatureF,DewpointF,PressureIn,WindDirection,WindDirectionDegrees,WindSpeedMPH,WindSpeedGustMPH,Humidity,HourlyPrecipIn,Conditions,Clouds,dailyrainin,SoftwareType,DateUTC
2013-04-30 00:02:00,62.1,60.9,29.81,SE,135,3.0,11.0,96,0.00,,,0.00,Wunderground v.1.15,2013-04-30 05:02:00,
2013-04-30 00:08:00,62.1,61.2,29.82,SE,135,3.0,11.0,97,0.00,,,0.00,Wunderground v.1.15,2013-04-30 05:08:00,
2013-04-30 00:14:00,62.0,61.1,29.81,SSE,148,3.0,11.0,97,0.00,,,0.00,Wunderground v.1.15,2013-04-30 05:14:00,
2013-04-30 00:20:00,62.0,61.1,29.81,SE,130,3.0,11.0,97,0.00,,,0.00,Wunderground v.1.15,2013-04-30 05:20:00,
2013-04-30 00:26:00,62.0,61.1,29.81,SSW,198,3.0,11.0,97,0.00,,,0.00,Wunderground v.1.15,2013-04-30 05:26:00,
2013-04-30 00:32:00,62.0,61.1,29.81,SSE,153,4.0,11.0,97,0.00,,,0.00,Wunderground v.1.15,2013-04-30 05:32:00,
2013-04-30 00:38:00,62.0,61.1,29.81,SE,135,5.0,11.0,97,0.00,,,0.00,Wunderground v.1.15,2013-04-30 05:38:00,
2013-04-30 00:44:00,62.0,61.1,29.81,SE,145,5.0,11.0,97,0.00,,,0.00,Wunderground v.1.15,2013-04-30 05:44:00,
2013-04-30 00:50:00,62.0,61.1,29.80,SE,138,5.0,5.0,97,0.00,,,0.00,Wunderground v.1.15,2013-04-30 05:50:00,
2013-04-30 00:56:00,61.9,61.0,29.80,South,174,5.0,11.0,97,0.00,,,0.00,Wunderground v.1.15,2013-04-30 05:56:00,
2013-04-30 01:02:00,61.8,60.9,29.80,SSE,163,6.0,11.0,97,0.00,,,0.00,Wunderground v.1.15,2013-04-30 06:02:00,
2013-04-30 01:08:00,61.8,60.9,29.80,SSE,167,6.0,11.0,97,0.00,,,0.00,Wunderground v.1.15,2013-04-30 06:08:00,
2013-04-30 01:14:00,61.7,60.8,29.80,SSE,167,6.0,11.0,97,0.00,,,0.00,Wunderground v.1.15,2013-04-30 06:14:00,
2013-04-30 01:20:00,61.7,61.1,29.80,SE,138,6.0,11.0,98,0.00,,,0.00,Wunderground v.1.15,2013-04-30 06:20:00,
2013-04-30 01:26:00,61.7,61.1,29.80,SE,141,6.0,11.0,98,0.00,,,0.00,Wunderground v.1.15,2013-04-30 06:26:00,
2013-04-30 01:32:00,61.6,61.0,29.80,SSE,162,6.0,11.0,98,0.00,,,0.00,Wunderground v.1.15,2013-04-30 06:32:00,
2013-04-30 01:38:00,61.5,60.9,29.80,SSE,166,6.0,11.0,98,0.00,,,0.00,Wunderground v.1.15,2013-04-30 06:38:00,
2013-04-30 01:44:00,61.4,60.8,29.80,South,180,5.0,11.0,98,0.00,,,0.00,Wunderground v.1.15,2013-04-30 06:44:00,
2013-04-30 01:50:00,61.2,60.6,29.80,SSE,153,4.0,11.0,98,0.00,,,0.00,Wunderground v.1.15,2013-04-30 06:50:00,
2013-04-30 01:56:00,61.3,60.7,29.80,SE,141,4.0,11.0,98,0.00,,,0.00,Wunderground v.1.15,2013-04-30 06:56:00,
2013-04-30 02:02:00,61.3,60.7,29.80,SE,125,5.0,11.0,98,0.00,,,0.00,Wunderground v.1.15,2013-04-30 07:02:00,
2013-04-30 02:08:00,61.3,60.7,29.80,South,180,5.0,11.0,98,0.00,,,0.00,Wunderground v.1.15,2013-04-30 07:08:00,
2013-04-30 02:14:00,61.2,60.6,29.80,SSE,151,4.0,11.0,98,0.00,,,0.00,Wunderground v.1.15,2013-04-30 07:14:00,
2013-04-30 02:22:00,61.0,60.4,29.79,SSE,150,3.0,11.0,98,0.00,,,0.00,Wunderground v.1.15,2013-04-30 07:22:00,
2013-04-30 02:28:00,61.0,60.4,29.79,SSE,158,3.0,11.0,98,0.00,,,0.00,Wunderground v.1.15,2013-04-30 07:28:00,
2013-04-30 02:34:00,61.2,60.6,29.79,SE,142,4.0,11.0,98,0.00,,,0.00,Wunderground v.1.15,2013-04-30 07:34:00,
2013-04-30 02:40:00,61.3,60.7,29.79,SSE,165,5.0,5.0,98,0.00,,,0.00,Wunderground v.1.15,2013-04-30 07:40:00,
2013-04-30 02:46:00,61.5,60.9,29.79,SE,138,5.0,11.0,98,0.00,,,0.00,Wunderground v.1.15,2013-04-30 07:46:00,
2013-04-30 02:52:00,61.8,61.2,29.79,SSE,151,4.0,6.0,98,0.00,,,0.00,Wunderground v.1.15,2013-04-30 07:52:00,
2013-04-30 02:58:00,61.8,61.2,29.78,SSE,152,4.0,11.0,98,0.00,,,0.00,Wunderground v.1.15,2013-04-30 07:58:00,
2013-04-30 03:04:00,61.9,61.3,29.78,SE,141,4.0,11.0,98,0.00,,,0.00,Wunderground v.1.15,2013-04-30 08:04:00,
2013-04-30 03:10:00,62.0,61.4,29.78,SSE,150,5.0,5.0,98,0.00,,,0.00,Wunderground v.1.15,2013-04-30 08:10:00,
2013-04-30 03:16:00,62.1,61.5,29.78,ESE,123,5.0,11.0,98,0.00,,,0.00,Wunderground v.1.15,2013-04-30 08:16:00,
2013-04-30 03:22:00,62.2,61.6,29.78,SE,132,6.0,11.0,98,0.00,,,0.00,Wunderground v.1.15,2013-04-30 08:22:00,
2013-04-30 03:28:00,62.3,61.7,29.78,ESE,117,6.0,11.0,98,0.00,,,0.00,Wunderground v.1.15,2013-04-30 08:28:00,
2013-04-30 03:34:00,62.4,61.8,29.78,SE,139,6.0,11.0,98,0.00,,,0.00,Wunderground v.1.15,2013-04-30 08:34:00,
2013-04-30 03:40:00,62.5,61.9,29.77,SE,128,6.0,11.0,98,0.00,,,0.00,Wunderground v.1.15,2013-04-30 08:40:00,
2013-04-30 03:46:00,62.6,62.0,29.77,SSE,162,7.0,11.0,98,0.00,,,0.00,Wunderground v.1.15,2013-04-30 08:46:00,
2013-04-30 03:52:00,62.8,62.2,29.77,SSE,148,7.0,11.0,98,0.00,,,0.00,Wunderground v.1.15,2013-04-30 08:52:00,
2013-04-30 03:58:00,62.9,62.3,29.77,SSE,162,6.0,12.0,98,0.00,,,0.00,Wunderground v.1.15,2013-04-30 08:58:00,
2013-04-30 04:04:00,63.0,62.4,29.78,SE,141,6.0,11.0,98,0.00,,,0.00,Wunderground v.1.15,2013-04-30 09:04:00,
2013-04-30 04:10:00,63.0,62.4,29.78,South,172,7.0,11.0,98,0.00,,,0.00,Wunderground v.1.15,2013-04-30 09:10:00,
2013-04-30 04:16:00,63.0,62.4,29.77,SE,131,8.0,11.0,98,0.00,,,0.00,Wunderground v.1.15,2013-04-30 09:16:00,
2013-04-30 04:22:00,63.0,62.4,29.77,SE,138,8.0,11.0,98,0.00,,,0.00,Wunderground v.1.15,2013-04-30 09:22:00,
2013-04-30 04:28:00,63.0,62.4,29.77,SSE,165,8.0,11.0,98,0.00,,,0.00,Wunderground v.1.15,2013-04-30 09:28:00,
2013-04-30 04:34:00,62.9,62.3,29.76,SE,134,9.0,11.0,98,0.00,,,0.00,Wunderground v.1.15,2013-04-30 09:34:00,
2013-04-30 04:40:00,62.9,62.3,29.76,SSE,162,9.0,14.0,98,0.00,,,0.00,Wunderground v.1.15,2013-04-30 09:40:00,
2013-04-30 04:46:00,62.9,62.3,29.76,SE,141,10.0,14.0,98,0.00,,,0.00,Wunderground v.1.15,2013-04-30 09:46:00,
2013-04-30 04:52:00,62.8,62.2,29.76,ESE,117,9.0,11.0,98,0.00,,,0.00,Wunderground v.1.15,2013-04-30 09:52:00,
2013-04-30 04:58:00,62.9,62.3,29.76,SE,135,8.0,12.0,98,0.00,,,0.00,Wunderground v.1.15,2013-04-30 09:58:00,
2013-04-30 05:04:00,62.9,62.3,29.76,SSE,165,8.0,11.0,98,0.00,,,0.00,Wunderground v.1.15,2013-04-30 10:04:00,
2013-04-30 05:10:00,62.9,62.3,29.76,SE,131,7.0,11.0,98,0.00,,,0.00,Wunderground v.1.15,2013-04-30 10:10:00,
2013-04-30 05:16:00,62.9,62.3,29.77,South,172,8.0,11.0,98,0.00,,,0.00,Wunderground v.1.15,2013-04-30 10:16:00,
2013-04-30 05:22:00,62.9,62.3,29.77,SE,143,7.0,11.0,98,0.00,,,0.00,Wunderground v.1.15,2013-04-30 10:22:00,
2013-04-30 05:28:00,62.7,62.1,29.77,SE,146,7.0,11.0,98,0.00,,,0.00,Wunderground v.1.15,2013-04-30 10:28:00,
2013-04-30 05:34:00,62.6,62.0,29.77,South,183,8.0,11.0,98,0.00,,,0.00,Wunderground v.1.15,2013-04-30 10:34:00,
2013-04-30 05:40:00,62.6,62.0,29.77,SE,134,7.0,7.0,98,0.00,,,0.00,Wunderground v.1.15,2013-04-30 10:40:00,
2013-04-30 05:46:00,62.6,62.0,29.77,SE,132,5.0,11.0,98,0.00,,,0.00,Wunderground v.1.15,2013-04-30 10:46:00,
2013-04-30 05:52:00,62.7,62.1,29.77,South,188,5.0,11.0,98,0.00,,,0.00,Wunderground v.1.15,2013-04-30 10:52:00,
2013-04-30 05:58:00,62.8,62.2,29.77,SE,127,6.0,11.0,98,0.00,,,0.00,Wunderground v.1.15,2013-04-30 10:58:00,
2013-04-30 06:04:00,62.8,62.2,29.77,SSE,157,6.0,7.0,98,0.00,,,0.00,Wunderground v.1.15,2013-04-30 11:04:00,
2013-04-30 06:10:00,62.9,62.3,29.77,South,190,6.0,6.0,98,0.00,,,0.00,Wunderground v.1.15,2013-04-30 11:10:00,
2013-04-30 06:16:00,62.9,62.3,29.77,South,174,6.0,8.0,98,0.00,,,0.00,Wunderground v.1.15,2013-04-30 11:16:00,
2013-04-30 06:22:00,62.8,62.2,29.77,SSE,151,6.0,6.0,98,0.00,,,0.00,Wunderground v.1.15,2013-04-30 11:22:00,
2013-04-30 06:28:00,62.8,62.2,29.78,ESE,108,5.0,6.0,98,0.00,,,0.00,Wunderground v.1.15,2013-04-30 11:28:00,
2013-04-30 06:34:00,62.7,62.1,29.78,SSE,165,5.0,6.0,98,0.00,,,0.00,Wunderground v.1.15,2013-04-30 11:34:00,
2013-04-30 06:40:00,62.7,62.1,29.78,South,174,5.0,5.0,98,0.00,,,0.00,Wunderground v.1.15,2013-04-30 11:40:00,
2013-04-30 06:46:00,62.7,62.1,29.78,SSE,157,4.0,5.0,98,0.00,,,0.00,Wunderground v.1.15,2013-04-30 11:46:00,
2013-04-30 06:52:00,62.7,62.1,29.78,SSE,165,5.0,8.0,98,0.00,,,0.00,Wunderground v.1.15,2013-04-30 11:52:00,
2013-04-30 06:58:00,62.7,62.1,29.78,South,191,5.0,9.0,98,0.00,,,0.00,Wunderground v.1.15,2013-04-30 11:58:00,
2013-04-30 07:04:00,62.8,62.2,29.78,SSW,208,6.0,9.0,98,0.00,,,0.00,Wunderground v.1.15,2013-04-30 12:04:00,
2013-04-30 07:10:00,62.9,62.3,29.79,SE,132,5.0,5.0,98,0.00,,,0.00,Wunderground v.1.15,2013-04-30 12:10:00,
2013-04-30 07:16:00,63.0,62.4,29.79,SSE,161,4.0,9.0,98,0.00,,,0.00,Wunderground v.1.15,2013-04-30 12:16:00,
2013-04-30 07:22:00,63.0,62.1,29.79,SE,125,4.0,9.0,97,0.00,,,0.00,Wunderground v.1.15,2013-04-30 12:22:00,
2013-04-30 07:28:00,63.1,62.2,29.79,SSE,167,4.0,9.0,97,0.00,,,0.00,Wunderground v.1.15,2013-04-30 12:28:00,
2013-04-30 07:34:00,63.2,62.3,29.80,SSE,158,4.0,9.0,97,0.00,,,0.00,Wunderground v.1.15,2013-04-30 12:34:00,
2013-04-30 07:42:00,63.2,62.3,29.79,SE,127,5.0,9.0,97,0.00,,,0.00,Wunderground v.1.15,2013-04-30 12:42:00,
2013-04-30 07:48:00,63.4,62.5,29.79,SSE,148,5.0,9.0,97,0.00,,,0.00,Wunderground v.1.15,2013-04-30 12:48:00,
2013-04-30 07:54:00,63.5,62.6,29.79,SSE,152,4.0,9.0,97,0.00,,,0.00,Wunderground v.1.15,2013-04-30 12:54:00,
2013-04-30 08:00:00,63.7,62.8,29.79,SSE,158,4.0,9.0,97,0.00,,,0.00,Wunderground v.1.15,2013-04-30 13:00:00,
2013-04-30 08:06:00,63.8,62.6,29.79,South,170,4.0,9.0,96,0.00,,,0.00,Wunderground v.1.15,2013-04-30 13:06:00,
2013-04-30 08:12:00,63.9,62.7,29.80,SSE,164,6.0,9.0,96,0.00,,,0.00,Wunderground v.1.15,2013-04-30 13:12:00,
2013-04-30 08:18:00,64.1,62.6,29.80,SSE,153,6.0,9.0,95,0.00,,,0.00,Wunderground v.1.15,2013-04-30 13:18:00,
2013-04-30 08:24:00,64.4,62.6,29.80,South,186,6.0,9.0,94,0.00,,,0.00,Wunderground v.1.15,2013-04-30 13:24:00,
2013-04-30 08:30:00,64.6,62.8,29.80,SE,141,6.0,9.0,94,0.00,,,0.00,Wunderground v.1.15,2013-04-30 13:30:00,
2013-04-30 08:36:00,64.6,62.5,29.80,SSE,159,6.0,10.0,93,0.00,,,0.00,Wunderground v.1.15,2013-04-30 13:36:00,
2013-04-30 08:42:00,64.6,62.5,29.80,SSW,194,6.0,9.0,93,0.00,,,0.00,Wunderground v.1.15,2013-04-30 13:42:00,
2013-04-30 08:48:00,64.6,62.5,29.80,SSE,167,6.0,11.0,93,0.00,,,0.00,Wunderground v.1.15,2013-04-30 13:48:00,
2013-04-30 08:54:00,64.6,62.2,29.80,SE,130,6.0,9.0,92,0.00,,,0.00,Wunderground v.1.15,2013-04-30 13:54:00,
2013-04-30 09:00:00,64.7,62.3,29.80,SSW,203,6.0,6.0,92,0.00,,,0.00,Wunderground v.1.15,2013-04-30 14:00:00,
2013-04-30 09:06:00,64.7,62.3,29.80,SSE,155,6.0,9.0,92,0.00,,,0.00,Wunderground v.1.15,2013-04-30 14:06:00,
2013-04-30 09:12:00,64.8,62.4,29.80,SSW,195,5.0,9.0,92,0.00,,,0.00,Wunderground v.1.15,2013-04-30 14:12:00,
2013-04-30 09:18:00,64.9,62.2,29.80,SSW,198,5.0,9.0,91,0.00,,,0.00,Wunderground v.1.15,2013-04-30 14:18:00,
2013-04-30 09:24:00,65.2,62.5,29.80,WSW,239,6.0,9.0,91,0.00,,,0.00,Wunderground v.1.15,2013-04-30 14:24:00,
2013-04-30 09:30:00,65.5,62.5,29.80,SSE,164,4.0,9.0,90,0.00,,,0.00,Wunderground v.1.15,2013-04-30 14:30:00,
2013-04-30 09:36:00,65.6,62.6,29.80,South,176,5.0,9.0,90,0.00,,,0.00,Wunderground v.1.15,2013-04-30 14:36:00,
2013-04-30 09:42:00,65.6,62.6,29.80,South,181,5.0,9.0,90,0.00,,,0.00,Wunderground v.1.15,2013-04-30 14:42:00,
2013-04-30 09:48:00,65.9,62.6,29.80,SSE,155,6.0,9.0,89,0.00,,,0.00,Wunderground v.1.15,2013-04-30 14:48:00,
2013-04-30 09:54:00,66.2,62.5,29.80,South,190,5.0,9.0,88,0.00,,,0.00,Wunderground v.1.15,2013-04-30 14:54:00,
2013-04-30 10:00:00,66.6,62.9,29.80,South,179,6.0,6.0,88,0.00,,,0.00,Wunderground v.1.15,2013-04-30 15:00:00,
2013-04-30 10:06:00,67.1,62.8,29.80,SSE,162,6.0,9.0,86,0.00,,,0.00,Wunderground v.1.15,2013-04-30 15:06:00,
2013-04-30 10:12:00,67.3,63.0,29.80,SE,134,7.0,7.0,86,0.00,,,0.00,Wunderground v.1.15,2013-04-30 15:12:00,
2013-04-30 10:18:00,67.3,63.0,29.80,South,179,7.0,11.0,86,0.00,,,0.00,Wunderground v.1.15,2013-04-30 15:18:00,
2013-04-30 10:24:00,67.5,63.2,29.80,SSW,193,8.0,12.0,86,0.00,,,0.00,Wunderground v.1.15,2013-04-30 15:24:00,
2013-04-30 10:30:00,67.7,63.0,29.80,SSE,162,7.0,7.0,85,0.00,,,0.00,Wunderground v.1.15,2013-04-30 15:30:00,
2013-04-30 10:36:00,67.7,63.4,29.80,SW,226,6.0,10.0,86,0.00,,,0.00,Wunderground v.1.15,2013-04-30 15:36:00,
2013-04-30 10:42:00,67.6,63.3,29.80,SSW,198,7.0,12.0,86,0.00,,,0.00,Wunderground v.1.15,2013-04-30 15:42:00,
2013-04-30 10:48:00,67.6,63.6,29.80,South,188,8.0,12.0,87,0.00,,,0.00,Wunderground v.1.15,2013-04-30 15:48:00,
2013-04-30 10:54:00,68.3,63.6,29.80,South,184,7.0,11.0,85,0.00,,,0.00,Wunderground v.1.15,2013-04-30 15:54:00,
2013-04-30 11:00:00,68.7,64.0,29.80,SW,215,6.0,9.0,85,0.00,,,0.00,Wunderground v.1.15,2013-04-30 16:00:00,
2013-04-30 11:06:00,69.4,64.4,29.80,South,173,7.0,9.0,84,0.00,,,0.00,Wunderground v.1.15,2013-04-30 16:06:00,
2013-04-30 11:12:00,69.5,64.5,29.80,SSE,154,7.0,8.0,84,0.00,,,0.00,Wunderground v.1.15,2013-04-30 16:12:00,
2013-04-30 11:18:00,69.7,64.3,29.80,SSE,167,5.0,9.0,83,0.00,,,0.00,Wunderground v.1.15,2013-04-30 16:18:00,
2013-04-30 11:24:00,69.7,64.3,29.80,SSE,157,5.0,9.0,83,0.00,,,0.00,Wunderground v.1.15,2013-04-30 16:24:00,
2013-04-30 11:30:00,69.3,63.6,29.80,SE,138,7.0,9.0,82,0.00,,,0.00,Wunderground v.1.15,2013-04-30 16:30:00,
2013-04-30 11:36:00,69.1,63.7,29.80,SE,145,8.0,9.0,83,0.00,,,0.00,Wunderground v.1.15,2013-04-30 16:36:00,
2013-04-30 11:42:00,69.1,64.1,29.80,South,191,7.0,11.0,84,0.00,,,0.00,Wunderground v.1.15,2013-04-30 16:42:00,
2013-04-30 11:48:00,69.2,64.2,29.80,SE,127,6.0,11.0,84,0.00,,,0.00,Wunderground v.1.15,2013-04-30 16:48:00,
2013-04-30 11:54:00,69.5,64.1,29.80,SSW,194,7.0,9.0,83,0.00,,,0.00,Wunderground v.1.15,2013-04-30 16:54:00,
2013-04-30 12:00:00,69.8,64.1,29.80,SSE,150,7.0,7.0,82,0.00,,,0.00,Wunderground v.1.15,2013-04-30 17:00:00,
2013-04-30 12:06:00,70.3,63.8,29.80,SSW,204,7.0,10.0,80,0.00,,,0.00,Wunderground v.1.15,2013-04-30 17:06:00,
2013-04-30 12:12:00,70.0,64.2,29.80,South,186,7.0,8.0,82,0.00,,,0.00,Wunderground v.1.15,2013-04-30 17:12:00,
2013-04-30 12:18:00,69.7,64.0,29.80,SSW,198,7.0,9.0,82,0.00,,,0.00,Wunderground v.1.15,2013-04-30 17:18:00,
2013-04-30 12:24:00,70.1,64.3,29.80,SSW,205,7.0,10.0,82,0.00,,,0.00,Wunderground v.1.15,2013-04-30 17:24:00,
2013-04-30 12:30:00,69.8,64.1,29.80,South,190,6.0,6.0,82,0.00,,,0.00,Wunderground v.1.15,2013-04-30 17:30:00,
2013-04-30 12:36:00,69.8,64.1,29.79,South,174,6.0,9.0,82,0.00,,,0.00,Wunderground v.1.15,2013-04-30 17:36:00,
2013-04-30 12:42:00,70.2,64.1,29.79,South,190,7.0,9.0,81,0.00,,,0.00,Wunderground v.1.15,2013-04-30 17:42:00,
2013-04-30 12:48:00,70.5,64.0,29.79,SSE,159,7.0,9.0,80,0.00,,,0.00,Wunderground v.1.15,2013-04-30 17:48:00,
2013-04-30 12:54:00,70.7,64.6,29.79,SSE,166,7.0,9.0,81,0.00,,,0.00,Wunderground v.1.15,2013-04-30 17:54:00,
2013-04-30 13:00:00,70.7,63.9,29.79,SSW,203,6.0,6.0,79,0.00,,,0.00,Wunderground v.1.15,2013-04-30 18:00:00,
2013-04-30 13:06:00,71.2,64.4,29.78,ESE,121,6.0,9.0,79,0.00,,,0.00,Wunderground v.1.15,2013-04-30 18:06:00,
2013-04-30 13:12:00,71.6,64.0,29.78,SSW,200,6.0,9.0,77,0.00,,,0.00,Wunderground v.1.15,2013-04-30 18:12:00,
2013-04-30 13:18:00,72.2,64.2,29.78,SSE,166,6.0,9.0,76,0.00,,,0.00,Wunderground v.1.15,2013-04-30 18:18:00,
2013-04-30 13:24:00,72.8,63.6,29.78,South,171,6.0,11.0,73,0.00,,,0.00,Wunderground v.1.15,2013-04-30 18:24:00,
2013-04-30 13:30:00,73.3,63.3,29.77,SE,131,6.0,6.0,71,0.00,,,0.00,Wunderground v.1.15,2013-04-30 18:30:00,
2013-04-30 13:36:00,73.2,64.4,29.77,SE,145,5.0,9.0,74,0.00,,,0.00,Wunderground v.1.15,2013-04-30 18:36:00,
2013-04-30 13:42:00,73.4,64.2,29.77,South,173,7.0,9.0,73,0.00,,,0.00,Wunderground v.1.15,2013-04-30 18:42:00,
2013-04-30 13:48:00,73.7,64.1,29.77,WSW,243,5.0,9.0,72,0.00,,,0.00,Wunderground v.1.15,2013-04-30 18:48:00,
2013-04-30 13:54:00,74.0,64.0,29.76,SE,144,4.0,9.0,71,0.00,,,0.00,Wunderground v.1.15,2013-04-30 18:54:00,
2013-04-30 14:00:00,74.3,64.3,29.76,South,184,6.0,12.0,71,0.00,,,0.00,Wunderground v.1.15,2013-04-30 19:00:00,
2013-04-30 14:06:00,74.2,64.2,29.76,SE,139,7.0,12.0,71,0.00,,,0.00,Wunderground v.1.15,2013-04-30 19:06:00,
2013-04-30 14:12:00,74.6,63.8,29.76,South,176,6.0,9.0,69,0.00,,,0.00,Wunderground v.1.15,2013-04-30 19:12:00,
2013-04-30 14:18:00,74.8,63.9,29.76,SSE,150,7.0,9.0,69,0.00,,,0.00,Wunderground v.1.15,2013-04-30 19:18:00,
2013-04-30 14:24:00,75.5,63.8,29.76,SSE,153,7.0,9.0,67,0.00,,,0.00,Wunderground v.1.15,2013-04-30 19:24:00,
2013-04-30 14:30:00,75.7,64.0,29.75,SSE,156,5.0,9.0,67,0.00,,,0.00,Wunderground v.1.15,2013-04-30 19:30:00,
2013-04-30 14:36:00,75.9,63.7,29.75,SE,139,5.0,9.0,66,0.00,,,0.00,Wunderground v.1.15,2013-04-30 19:36:00,
2013-04-30 14:42:00,76.6,63.5,29.75,ESE,117,6.0,9.0,64,0.00,,,0.00,Wunderground v.1.15,2013-04-30 19:42:00,
2013-04-30 14:48:00,76.4,63.3,29.74,SE,125,6.0,9.0,64,0.00,,,0.00,Wunderground v.1.15,2013-04-30 19:48:00,
2013-04-30 14:54:00,76.7,63.6,29.74,SSE,166,6.0,9.0,64,0.00,,,0.00,Wunderground v.1.15,2013-04-30 19:54:00,
2013-04-30 15:00:00,76.5,63.0,29.74,SSE,156,7.0,9.0,63,0.00,,,0.00,Wunderground v.1.15,2013-04-30 20:00:00,
2013-04-30 15:06:00,77.2,63.6,29.74,SW,218,8.0,9.0,63,0.00,,,0.00,Wunderground v.1.15,2013-04-30 20:06:00,
2013-04-30 15:12:00,77.6,64.0,29.74,South,174,7.0,9.0,63,0.00,,,0.00,Wunderground v.1.15,2013-04-30 20:12:00,
2013-04-30 15:18:00,77.8,63.7,29.73,ESE,122,7.0,9.0,62,0.00,,,0.00,Wunderground v.1.15,2013-04-30 20:18:00,
2013-04-30 15:24:00,77.9,64.3,29.73,SE,129,6.0,10.0,63,0.00,,,0.00,Wunderground v.1.15,2013-04-30 20:24:00,
2013-04-30 15:30:00,78.0,63.9,29.73,SE,128,7.0,9.0,62,0.00,,,0.00,Wunderground v.1.15,2013-04-30 20:30:00,
2013-04-30 15:36:00,78.5,63.9,29.73,South,174,6.0,11.0,61,0.00,,,0.00,Wunderground v.1.15,2013-04-30 20:36:00,
2013-04-30 15:42:00,79.3,63.7,29.72,SE,136,6.0,9.0,59,0.00,,,0.00,Wunderground v.1.15,2013-04-30 20:42:00,
2013-04-30 15:48:00,79.0,63.9,29.72,SSW,203,6.0,9.0,60,0.00,,,0.00,Wunderground v.1.15,2013-04-30 20:48:00,
2013-04-30 15:54:00,78.9,63.4,29.72,SE,139,8.0,10.0,59,0.00,,,0.00,Wunderground v.1.15,2013-04-30 20:54:00,
2013-04-30 16:00:00,79.0,63.9,29.72,SSW,193,6.0,6.0,60,0.00,,,0.00,Wunderground v.1.15,2013-04-30 21:00:00,
2013-04-30 16:06:00,78.9,64.3,29.72,South,172,6.0,9.0,61,0.00,,,0.00,Wunderground v.1.15,2013-04-30 21:06:00,
2013-04-30 16:12:00,79.1,63.5,29.71,SE,141,6.0,9.0,59,0.00,,,0.00,Wunderground v.1.15,2013-04-30 21:12:00,
2013-04-30 16:18:00,79.4,64.3,29.71,South,187,6.0,9.0,60,0.00,,,0.00,Wunderground v.1.15,2013-04-30 21:18:00,
2013-04-30 16:24:00,79.7,64.6,29.71,SSW,193,5.0,9.0,60,0.00,,,0.00,Wunderground v.1.15,2013-04-30 21:24:00,
2013-04-30 16:30:00,80.1,64.0,29.71,South,173,6.0,13.0,58,0.00,,,0.00,Wunderground v.1.15,2013-04-30 21:30:00,
2013-04-30 16:36:00,79.9,63.3,29.71,SSE,153,8.0,13.0,57,0.00,,,0.00,Wunderground v.1.15,2013-04-30 21:36:00,
2013-04-30 16:42:00,80.0,64.4,29.71,SSW,198,7.0,9.0,59,0.00,,,0.00,Wunderground v.1.15,2013-04-30 21:42:00,
2013-04-30 16:48:00,80.0,63.9,29.71,SSE,160,7.0,11.0,58,0.00,,,0.00,Wunderground v.1.15,2013-04-30 21:48:00,
2013-04-30 16:54:00,80.3,63.2,29.71,SE,130,7.0,9.0,56,0.00,,,0.00,Wunderground v.1.15,2013-04-30 21:54:00,
2013-04-30 17:00:00,80.6,64.0,29.71,SSE,150,6.0,9.0,57,0.00,,,0.00,Wunderground v.1.15,2013-04-30 22:00:00,
2013-04-30 17:06:00,80.5,63.4,29.71,SE,142,6.0,11.0,56,0.00,,,0.00,Wunderground v.1.15,2013-04-30 22:06:00,
2013-04-30 17:12:00,80.3,63.2,29.70,SE,145,6.0,9.0,56,0.00,,,0.00,Wunderground v.1.15,2013-04-30 22:12:00,
2013-04-30 17:18:00,80.4,63.3,29.70,SSE,165,6.0,9.0,56,0.00,,,0.00,Wunderground v.1.15,2013-04-30 22:18:00,
2013-04-30 17:24:00,80.4,63.8,29.70,SSE,167,6.0,9.0,57,0.00,,,0.00,Wunderground v.1.15,2013-04-30 22:24:00,
2013-04-30 17:30:00,80.3,64.2,29.70,SSE,155,5.0,9.0,58,0.00,,,0.00,Wunderground v.1.15,2013-04-30 22:30:00,
2013-04-30 17:36:00,80.6,63.5,29.70,South,169,6.0,9.0,56,0.00,,,0.00,Wunderground v.1.15,2013-04-30 22:36:00,
2013-04-30 17:42:00,80.1,62.5,29.70,East,87,6.0,9.0,55,0.00,,,0.00,Wunderground v.1.15,2013-04-30 22:42:00,
2013-04-30 17:48:00,80.2,64.1,29.71,ESE,120,6.0,9.0,58,0.00,,,0.00,Wunderground v.1.15,2013-04-30 22:48:00,
2013-04-30 17:54:00,80.4,64.3,29.71,ESE,120,7.0,13.0,58,0.00,,,0.00,Wunderground v.1.15,2013-04-30 22:54:00,
2013-04-30 18:00:00,80.6,64.5,29.70,SE,138,6.0,6.0,58,0.00,,,0.00,Wunderground v.1.15,2013-04-30 23:00:00,
2013-04-30 18:06:00,80.9,64.7,29.71,SE,141,5.0,9.0,58,0.00,,,0.00,Wunderground v.1.15,2013-04-30 23:06:00,
2013-04-30 18:12:00,80.7,64.1,29.70,South,181,5.0,6.0,57,0.00,,,0.00,Wunderground v.1.15,2013-04-30 23:12:00,
2013-04-30 18:18:00,80.8,63.6,29.70,SSE,158,5.0,9.0,56,0.00,,,0.00,Wunderground v.1.15,2013-04-30 23:18:00,
2013-04-30 18:24:00,80.2,63.1,29.70,SSE,162,6.0,9.0,56,0.00,,,0.00,Wunderground v.1.15,2013-04-30 23:24:00,
2013-04-30 18:30:00,80.1,63.5,29.70,South,169,6.0,9.0,57,0.00,,,0.00,Wunderground v.1.15,2013-04-30 23:30:00,
2013-04-30 18:36:00,79.7,63.1,29.70,South,190,6.0,9.0,57,0.00,,,0.00,Wunderground v.1.15,2013-04-30 23:36:00,
2013-04-30 18:42:00,79.7,63.1,29.70,SE,142,6.0,9.0,57,0.00,,,0.00,Wunderground v.1.15,2013-04-30 23:42:00,
2013-04-30 18:48:00,79.5,63.4,29.70,SSE,156,6.0,9.0,58,0.00,,,0.00,Wunderground v.1.15,2013-04-30 23:48:00,
2013-04-30 18:54:00,79.2,63.1,29.71,SE,124,6.0,9.0,58,0.00,,,0.00,Wunderground v.1.15,2013-04-30 23:54:00,
2013-04-30 19:00:00,78.7,63.2,29.71,SSE,150,6.0,6.0,59,0.00,,,0.00,Wunderground v.1.15,2013-05-01 00:00:00,
2013-04-30 19:06:00,78.3,63.3,29.70,SE,125,7.0,9.0,60,0.00,,,0.00,Wunderground v.1.15,2013-05-01 00:06:00,
2013-04-30 19:12:00,78.1,63.6,29.71,SSE,163,6.0,9.0,61,0.00,,,0.00,Wunderground v.1.15,2013-05-01 00:12:00,
2013-04-30 19:18:00,77.8,63.3,29.71,SE,130,6.0,10.0,61,0.00,,,0.00,Wunderground v.1.15,2013-05-01 00:18:00,
2013-04-30 19:24:00,77.5,63.5,29.71,SSE,153,6.0,9.0,62,0.00,,,0.00,Wunderground v.1.15,2013-05-01 00:24:00,
2013-04-30 19:30:00,77.2,63.2,29.71,SSE,148,6.0,9.0,62,0.00,,,0.00,Wunderground v.1.15,2013-05-01 00:30:00,
2013-04-30 19:36:00,76.7,63.2,29.71,SE,144,8.0,9.0,63,0.00,,,0.00,Wunderground v.1.15,2013-05-01 00:36:00,
2013-04-30 19:42:00,76.3,63.2,29.71,SE,127,7.0,9.0,64,0.00,,,0.00,Wunderground v.1.15,2013-05-01 00:42:00,
2013-04-30 19:48:00,75.9,63.3,29.72,SSE,156,5.0,9.0,65,0.00,,,0.00,Wunderground v.1.15,2013-05-01 00:48:00,
2013-04-30 19:54:00,75.4,62.8,29.72,SE,138,5.0,9.0,65,0.00,,,0.00,Wunderground v.1.15,2013-05-01 00:54:00,
2013-04-30 20:00:00,74.9,62.8,29.72,ESE,118,7.0,9.0,66,0.00,,,0.00,Wunderground v.1.15,2013-05-01 01:00:00,
2013-04-30 20:06:00,74.3,62.6,29.72,SE,141,6.0,9.0,67,0.00,,,0.00,Wunderground v.1.15,2013-05-01 01:06:00,
2013-04-30 20:12:00,73.8,62.6,29.73,SE,141,5.0,9.0,68,0.00,,,0.00,Wunderground v.1.15,2013-05-01 01:12:00,
2013-04-30 20:18:00,73.3,62.5,29.73,SE,129,5.0,9.0,69,0.00,,,0.00,Wunderground v.1.15,2013-05-01 01:18:00,
2013-04-30 20:24:00,72.8,62.4,29.73,SE,145,5.0,9.0,70,0.00,,,0.00,Wunderground v.1.15,2013-05-01 01:24:00,
2013-04-30 20:30:00,72.5,62.6,29.73,SSE,158,5.0,9.0,71,0.00,,,0.00,Wunderground v.1.15,2013-05-01 01:30:00,
2013-04-30 20:36:00,72.2,62.7,29.74,SE,143,5.0,9.0,72,0.00,,,0.00,Wunderground v.1.15,2013-05-01 01:36:00,
2013-04-30 20:42:00,72.0,62.5,29.74,South,173,5.0,9.0,72,0.00,,,0.00,Wunderground v.1.15,2013-05-01 01:42:00,
2013-04-30 20:48:00,71.7,62.6,29.74,SE,129,5.0,9.0,73,0.00,,,0.00,Wunderground v.1.15,2013-05-01 01:48:00,
2013-04-30 20:54:00,71.3,62.6,29.75,SE,143,5.0,9.0,74,0.00,,,0.00,Wunderground v.1.15,2013-05-01 01:54:00,
2013-04-30 21:00:00,71.0,62.7,29.75,SSE,149,5.0,5.0,75,0.00,,,0.00,Wunderground v.1.15,2013-05-01 02:00:00,
2013-04-30 21:06:00,70.8,62.9,29.75,SE,132,5.0,9.0,76,0.00,,,0.00,Wunderground v.1.15,2013-05-01 02:06:00,
2013-04-30 21:12:00,70.5,62.6,29.75,SE,132,5.0,9.0,76,0.00,,,0.00,Wunderground v.1.15,2013-05-01 02:12:00,
2013-04-30 21:18:00,70.3,62.7,29.75,SSE,148,4.0,9.0,77,0.00,,,0.00,Wunderground v.1.15,2013-05-01 02:18:00,
2013-04-30 21:24:00,70.1,62.6,29.75,South,170,4.0,9.0,77,0.00,,,0.00,Wunderground v.1.15,2013-05-01 02:24:00,
2013-04-30 21:30:00,69.9,62.7,29.76,SE,135,4.0,9.0,78,0.00,,,0.00,Wunderground v.1.15,2013-05-01 02:30:00,
2013-04-30 21:36:00,69.7,62.5,29.76,SE,138,4.0,9.0,78,0.00,,,0.00,Wunderground v.1.15,2013-05-01 02:36:00,
2013-04-30 21:42:00,69.5,62.7,29.76,ESE,113,4.0,7.0,79,0.00,,,0.00,Wunderground v.1.15,2013-05-01 02:42:00,
2013-04-30 21:48:00,69.4,62.6,29.76,SE,146,5.0,9.0,79,0.00,,,0.00,Wunderground v.1.15,2013-05-01 02:48:00,
2013-04-30 21:54:00,69.1,62.7,29.76,SSE,148,5.0,9.0,80,0.00,,,0.00,Wunderground v.1.15,2013-05-01 02:54:00,
2013-04-30 22:00:00,69.0,62.6,29.76,SE,145,5.0,5.0,80,0.00,,,0.00,Wunderground v.1.15,2013-05-01 03:00:00,
2013-04-30 22:06:00,68.9,62.5,29.76,SSE,159,5.0,9.0,80,0.00,,,0.00,Wunderground v.1.15,2013-05-01 03:06:00,
2013-04-30 22:12:00,68.7,62.6,29.76,ESE,120,5.0,9.0,81,0.00,,,0.00,Wunderground v.1.15,2013-05-01 03:12:00,
2013-04-30 22:18:00,68.6,62.5,29.76,SE,146,5.0,9.0,81,0.00,,,0.00,Wunderground v.1.15,2013-05-01 03:18:00,
2013-04-30 22:24:00,68.4,62.3,29.76,SE,139,6.0,9.0,81,0.00,,,0.00,Wunderground v.1.15,2013-05-01 03:24:00,
2013-04-30 22:30:00,68.4,62.7,29.76,SE,134,6.0,6.0,82,0.00,,,0.00,Wunderground v.1.15,2013-05-01 03:30:00,
2013-04-30 22:36:00,68.3,62.6,29.77,SE,146,6.0,9.0,82,0.00,,,0.00,Wunderground v.1.15,2013-05-01 03:36:00,
2013-04-30 22:42:00,68.1,62.4,29.77,SE,129,6.0,9.0,82,0.00,,,0.00,Wunderground v.1.15,2013-05-01 03:42:00,
2013-04-30 22:48:00,68.1,62.4,29.77,SSE,155,7.0,9.0,82,0.00,,,0.00,Wunderground v.1.15,2013-05-01 03:48:00,
2013-04-30 22:54:00,68.0,62.3,29.77,SE,132,7.0,9.0,82,0.00,,,0.00,Wunderground v.1.15,2013-05-01 03:54:00,
2013-04-30 23:00:00,67.8,62.4,29.77,SE,146,6.0,9.0,83,0.00,,,0.00,Wunderground v.1.15,2013-05-01 04:00:00,
2013-04-30 23:02:00,67.7,62.3,29.77,SE,137,6.0,9.0,83,0.00,,,0.00,Wunderground v.1.15,2013-05-01 04:02:00,
2013-04-30 23:04:00,67.7,62.3,29.77,ESE,113,6.0,9.0,83,0.00,,,0.00,Wunderground v.1.15,2013-05-01 04:04:00,
2013-04-30 23:10:00,67.7,62.3,29.77,SE,138,6.0,6.0,83,0.00,,,0.00,Wunderground v.1.15,2013-05-01 04:10:00,
2013-04-30 23:14:00,67.6,62.3,29.77,SE,124,6.0,9.0,83,0.00,,,0.00,Wunderground v.1.15,2013-05-01 04:14:00,
2013-04-30 23:20:00,67.5,62.5,29.78,SE,130,6.0,6.0,84,0.00,,,0.00,Wunderground v.1.15,2013-05-01 04:20:00,
2013-04-30 23:26:00,67.2,62.2,29.78,SE,145,7.0,9.0,84,0.00,,,0.00,Wunderground v.1.15,2013-05-01 04:26:00,
2013-04-30 23:28:00,67.1,62.1,29.78,SE,146,6.0,9.0,84,0.00,,,0.00,Wunderground v.1.15,2013-05-01 04:28:00,
2013-04-30 23:34:00,67.0,62.3,29.78,SSE,159,6.0,9.0,85,0.00,,,0.00,Wunderground v.1.15,2013-05-01 04:34:00,
2013-04-30 23:40:00,67.0,62.3,29.78,SE,143,6.0,9.0,85,0.00,,,0.00,Wunderground v.1.15,2013-05-01 04:40:00,
2013-04-30 23:46:00,67.1,62.4,29.78,SSE,148,7.0,9.0,85,0.00,,,0.00,Wunderground v.1.15,2013-05-01 04:46:00,
2013-04-30 23:52:00,67.0,62.3,29.78,SE,145,7.0,9.0,85,0.00,,,0.00,Wunderground v.1.15,2013-05-01 04:52:00,
2013-04-30 23:58:00,66.9,62.6,29.78,SSE,160,7.0,9.0,86,0.00,,,0.00,Wunderground v.1.15,2013-05-01 04:58:00,